FW2360 McClellanville SC US current weather conditions

sailwx.info

Wind from 063 at 0 knots gusting 4

Air temperature 32.2° C
Dewpoint 23.4° C

Last reported at 2020-Jul-04 20:00 UTC.
Time now 2020-Jul-04 20:53 UTC

Location: N 33°11' W 079°24'.
View on Google Maps.

See reports from other nearby stations

  
Tides and Currents Weather Stations Pressure Air Temp Water Temp Dewpoint Dewpoint Depression Visibility Wind Speed Wind Dir Waves Ship Positions
date/time (UTC)wind fromknots sea level pressurealtimeterstation pressurevisibilityair tempwater tempwave heightnotes
2020-Jul-04 20:00 063 0 gusting 4 32.2
2020-Jul-04 19:45 067 0 gusting 4 32.2
2020-Jul-04 19:30 124 0 gusting 4 32.2
2020-Jul-04 19:15 128 1 gusting 3 32.8
2020-Jul-04 19:02 155 0 gusting 5 31.7
2020-Jul-04 18:46 060 0 gusting 5 32.2
2020-Jul-04 18:45 096 0 gusting 5 32.2
2020-Jul-04 18:32 235 32.2
2020-Jul-04 18:16 098 1 gusting 4 32.2
2020-Jul-04 18:02 126 32.2
2020-Jul-04 17:47 072 0 gusting 3 32.8
2020-Jul-04 17:31 141 0 gusting 2 31.7
2020-Jul-04 17:16 068 0 gusting 3 31.7
2020-Jul-04 17:02 072 1 gusting 4 31.7
2020-Jul-04 16:48 094 1 gusting 3 32.2
2020-Jul-04 16:31 067 0 gusting 4 31.7
2020-Jul-04 16:16 022 31.7
2020-Jul-04 16:02 101 0 gusting 1 31.7
2020-Jul-04 15:47 131 32.8
2020-Jul-04 15:31 245 0 gusting 4 31.1
2020-Jul-04 15:15 028 0 gusting 3 30.6
2020-Jul-04 15:01 037 2 gusting 4 30.0
2020-Jul-04 14:46 012 0 gusting 4 30.0
2020-Jul-04 14:30 328 0 gusting 4 30.0
2020-Jul-04 14:15 248 30.0
2020-Jul-04 14:00 022 30.0
2020-Jul-04 13:46 051 30.0
2020-Jul-04 13:30 312 29.4
2020-Jul-04 13:17 232 0 gusting 3 28.9
2020-Jul-04 13:01 351 0 gusting 4 28.9
2020-Jul-04 12:45 220 28.9
2020-Jul-04 12:30 220 28.3
2020-Jul-04 12:15 265 27.8
2020-Jul-04 12:00 186 27.2
2020-Jul-04 11:45 186 26.1
2020-Jul-04 11:30 186 25.6
2020-Jul-04 11:15 186 23.9
2020-Jul-04 11:01 186 23.3
2020-Jul-04 10:45 186 22.2
2020-Jul-04 10:30 186 21.1
2020-Jul-04 10:00 186 21.1
2020-Jul-04 09:45 186 21.1
2020-Jul-04 09:30 186 21.1
2020-Jul-04 09:15 186 21.1
2020-Jul-04 09:00 186 21.1
2020-Jul-04 08:45 186 21.1
2020-Jul-04 08:30 186 21.1
2020-Jul-04 08:15 186 21.1
2020-Jul-04 08:02 186 21.1
2020-Jul-04 07:46 186 21.1
2020-Jul-04 07:31 186 21.1
2020-Jul-04 07:17 186 21.1
2020-Jul-04 07:01 186 21.7
2020-Jul-04 06:46 186 21.7
2020-Jul-04 06:31 157 21.7
2020-Jul-04 06:19 157 21.7
2020-Jul-04 06:03 157 21.7
2020-Jul-04 05:47 157 21.7
2020-Jul-04 05:31 157 22.2
2020-Jul-04 05:17 158 22.2
2020-Jul-04 05:01 158 22.2
2020-Jul-04 04:46 156 22.2
2020-Jul-04 04:31 157 22.2
2020-Jul-04 04:16 150 22.2
2020-Jul-04 04:00 150 22.2
2020-Jul-04 03:46 150 22.8
2020-Jul-04 03:31 150 22.8
2020-Jul-04 03:15 150 22.8
2020-Jul-04 03:01 150 22.8
2020-Jul-04 02:47 150 22.8
2020-Jul-04 02:31 150 23.3
2020-Jul-04 02:17 150 23.3
2020-Jul-04 02:02 150 23.9
2020-Jul-04 01:45 150 23.9
2020-Jul-04 01:31 150 24.4
2020-Jul-04 01:15 150 24.4
2020-Jul-04 01:04 150 25.0
2020-Jul-04 00:46 150 25.0
2020-Jul-04 00:32 150 26.1
2020-Jul-04 00:17 150 27.2
2020-Jul-04 00:00 150 27.2
2020-Jul-03 23:46 150 27.8
2020-Jul-03 23:30 150 28.3
2020-Jul-03 23:15 150 28.9
2020-Jul-03 23:00 148 29.4
2020-Jul-03 22:46 150 30.0
2020-Jul-03 22:30 155 30.0
2020-Jul-03 22:15 123 30.6
2020-Jul-03 22:01 167 30.6
2020-Jul-03 21:45 252 31.1
2020-Jul-03 21:30 075 0 gusting 3 31.7
2020-Jul-03 21:15 114 31.7
2020-Jul-03 21:00 122 31.1
2020-Jul-03 20:45 129 0 gusting 4 31.7
2020-Jul-03 20:30 143 31.7
2020-Jul-03 20:15 100 31.1
2020-Jul-03 20:00 124 31.7
2020-Jul-03 19:45 069 3 gusting 6 31.1
2020-Jul-03 19:30 086 3 gusting 8 31.1
2020-Jul-03 19:15 085 31.7
2020-Jul-03 19:00 069 1 gusting 3 31.7
2020-Jul-03 18:45 075 0 gusting 3 31.1
2020-Jul-03 18:30 241 32.2
2020-Jul-03 18:15 091 32.2
2020-Jul-03 18:00 302 32.2
2020-Jul-03 17:45 027 31.1
2020-Jul-03 17:30 260 31.7
2020-Jul-03 17:15 329 4 gusting 6 30.6
2020-Jul-03 17:00 006 31.1
2020-Jul-03 16:45 342 3 gusting 6 30.6
2020-Jul-03 16:30 055 2 gusting 6 29.4
2020-Jul-03 16:15 027 2 gusting 4 30.0
2020-Jul-03 16:00 028 0 gusting 4 30.0
2020-Jul-03 15:45 351 0 gusting 5 30.6
2020-Jul-03 15:30 348 0 gusting 6 30.0
2020-Jul-03 15:15 002 1 gusting 6 29.4
2020-Jul-03 15:00 359 0 gusting 3 29.4
2020-Jul-03 14:47 295 28.9
2020-Jul-03 14:32 337 28.9
2020-Jul-03 14:15 010 2 gusting 5 28.3
2020-Jul-03 14:01 341 1 gusting 3 27.8
2020-Jul-03 13:46 356 0 gusting 4 27.2
2020-Jul-03 13:31 346 0 gusting 3 26.1
2020-Jul-03 13:16 002 1 gusting 3 25.6
2020-Jul-03 13:01 018 0 gusting 3 25.0
2020-Jul-03 12:46 005 0 gusting 3 24.4
2020-Jul-03 12:30 015 1 gusting 5 23.9
2020-Jul-03 12:16 351 3 gusting 6 23.9
2020-Jul-03 12:01 338 1 gusting 5 23.3
2020-Jul-03 11:46 338 0 gusting 4 23.3
2020-Jul-03 11:31 352 23.3
2020-Jul-03 11:15 349 1 gusting 5 23.3
2020-Jul-03 11:00 018 1 gusting 5 23.3
2020-Jul-03 10:46 345 1 gusting 4 23.3
2020-Jul-03 10:30 342 0 gusting 3 23.3
2020-Jul-03 10:16 338 23.3
2020-Jul-03 10:00 030 0 gusting 3 23.3
2020-Jul-03 09:45 342 23.3
2020-Jul-03 09:30 345 0 gusting 3 23.3
2020-Jul-03 09:15 006 2 gusting 4 23.3
2020-Jul-03 09:00 245 23.3
2020-Jul-03 08:45 238 23.3
2020-Jul-03 08:15 001 23.3
2020-Jul-03 08:00 001 23.3
2020-Jul-03 07:45 230 22.8
2020-Jul-03 07:30 229 22.8
2020-Jul-03 07:15 229 22.8
2020-Jul-03 07:00 229 22.8
2020-Jul-03 06:45 229 23.3
2020-Jul-03 06:31 230 23.3
2020-Jul-03 06:15 230 23.3
2020-Jul-03 06:00 231 23.3
2020-Jul-02 23:46 031 1 gusting 2 26.1
2020-Jul-02 23:30 005 26.1
2020-Jul-02 23:15 054 26.1
2020-Jul-02 23:00 054 26.1
2020-Jul-02 22:46 054 25.6
2020-Jul-02 22:31 097 25.6
2020-Jul-02 22:18 097 25.0
2020-Jul-02 22:01 097 25.6
2020-Jul-02 21:47 309 27.2
2020-Jul-02 21:31 231 28.9
2020-Jul-02 21:17 090 29.4
2020-Jul-02 21:01 336 30.0
2020-Jul-02 20:46 336 30.0
2020-Jul-02 20:33 335 29.4
2020-Jul-02 20:16 066 0 gusting 5 30.0
2020-Jul-02 20:01 143 30.6